EW7988 Weather Reports


time (UTC)temp
C
wind
direction
speed
KPH
gust
KPH
rain 1hr
cm
rain 24hr
cm
rain mn
cm
humidity
%
barometer
mb
20260505224505 25 19 0.0 0.0 0.00 0.00 0.00 32 1003.8
20260505223003 25 342 0.0 0.0 0.00 0.00 0.00 33 1003.8
20260505221546 25 355 0.0 0.0 0.00 0.00 0.00 35 1003.9
20260505220048 24 42 0.0 0.0 0.00 0.00 0.00 32 1003.9
20260505214555 25 33 0.0 0.0 0.00 0.00 0.00 35 1003.9
20260505213027 24 34 0.0 0.0 0.00 0.00 0.00 33 1003.8
20260505211516 24 69 0.0 0.0 0.00 0.00 0.00 34 1003.9
20260505210016 24 29 0.0 0.0 0.00 0.00 0.00 37 1003.9
20260505204516 23 65 0.0 0.0 0.00 0.00 0.00 39 1004.2
20260505203023 23 64 0.0 0.0 0.00 0.00 0.00 40 1004.2
20260505201522 23 56 0.0 0.0 0.00 0.00 0.00 42 1004.3
20260505200014 23 19 0.0 0.0 0.00 0.00 0.00 43 1004.3
20260505194514 22 37 0.0 0.0 0.00 0.00 0.00 45 1004.5
20260505193012 22 53 0.0 0.0 0.00 0.00 0.00 43 1004.5
20260505191558 22 189 0.0 0.0 0.00 0.00 0.00 51 1004.6
20260505190055 21 360 0.0 0.0 0.00 0.00 0.00 52 1004.6
20260505184553 21 360 0.0 0.0 0.00 0.00 0.00 52 1004.8
20260505183048 20 360 0.0 0.0 0.00 0.00 0.00 56 1004.9
20260505181545 20 184 0.0 0.0 0.00 0.00 0.00 55 1004.9
20260505174556 18 200 0.0 0.0 0.00 0.00 0.00 59 1004.9
20260505173042 18 187 0.0 0.0 0.00 0.00 0.00 60 1004.9
20260505171523 17 200 0.0 0.0 0.00 0.00 0.00 63 1005.0
20260505170014 16 360 0.0 0.0 0.00 0.00 0.00 63 1005.1
20260505164511 16 360 0.0 0.0 0.00 0.00 0.00 65 1005.0
20260505163007 15 360 0.0 0.0 0.00 0.00 0.00 66 1005.1
20260505161501 15 360 0.0 0.0 0.00 0.00 0.00 67 1005.1
20260505160106 15 360 0.0 0.0 0.00 0.00 0.00 68 1005.0
20260505153059 13 41 0.0 0.0 0.00 0.00 0.00 73 1005.3
20260505151547 12 41 0.0 0.0 0.00 0.00 0.00 75 1005.2
20260505124507 9 32 0.0 0.0 0.00 0.00 0.00 77 1004.0
20260505123005 10 32 0.0 0.0 0.00 0.00 0.00 77 1003.9
20260505121506 10 32 0.0 0.0 0.00 0.00 0.00 78 1003.9
20260505120005 10 32 0.0 0.0 0.00 0.00 0.00 77 1003.9
20260505114504 9 32 0.0 0.0 0.00 0.00 0.00 77 1003.9
20260505113003 8 32 0.0 0.0 0.00 0.00 0.00 79 1003.9
20260505111503 8 32 0.0 0.0 0.00 0.00 0.00 78 1003.8
20260505101547 7 32 0.0 0.0 0.00 0.00 0.00 78 1003.4
20260505100050 7 32 0.0 0.0 0.00 0.00 0.00 77 1003.4
20260505094546 7 32 0.0 0.0 0.00 0.00 0.00 78 1003.4
20260505093046 7 32 0.0 0.0 0.00 0.00 0.00 76 1003.5
20260505091601 7 32 0.0 0.0 0.00 0.00 0.00 75 1003.6
20260505090044 7 32 0.0 0.0 0.00 0.00 0.00 77 1003.4
20260505084538 7 29 0.0 0.0 0.00 0.00 0.00 74 1003.3
20260505083025 7 18 0.0 0.0 0.00 0.00 0.00 76 1003.3
20260505081519 7 18 0.0 0.0 0.00 0.00 0.00 76 1003.3
20260505080113 7 17 0.0 0.0 0.00 0.00 0.00 73 1003.3
20260505074559 8 17 0.0 0.0 0.00 0.00 0.00 70 1003.1
20260505073035 8 5 0.0 0.0 0.00 0.00 0.00 71 1003.1
20260505071536 9 301 0.0 0.0 0.00 0.00 0.00 68 1002.9
20260505070012 10 293 0.0 0.0 0.00 0.00 0.00 65 1002.8
20260505064509 10 286 0.0 0.0 0.00 0.00 0.00 66 1002.8
20260505063105 11 278 0.0 0.0 0.00 0.00 0.00 62 1002.6
20260505061610 11 269 0.0 0.0 0.00 0.00 0.00 61 1002.4
20260505060029 12 267 0.0 0.0 0.00 0.00 0.00 58 1002.4
20260505054526 13 267 0.0 0.0 0.00 0.00 0.00 55 1002.2
20260505053021 15 267 0.0 0.0 0.00 0.00 0.00 52 1002.1
20260505051531 16 267 0.0 0.0 0.00 0.00 0.00 47 1002.0
20260505041506 17 360 0.0 0.0 0.00 0.00 0.00 44 1001.3
20260505040050 18 355 0.0 0.0 0.00 0.00 0.00 43 1000.8
20260505034545 18 346 0.0 0.0 0.00 0.00 0.00 41 1000.4
20260505033042 19 10 0.0 0.0 0.00 0.00 0.00 41 1000.3
20260505031539 20 333 0.0 0.0 0.00 0.00 0.00 40 1000.1
20260505030034 21 340 0.0 0.0 0.00 0.00 0.00 39 999.9
20260505024528 22 360 0.0 0.0 0.00 0.00 0.00 39 999.8
20260505023025 22 5 0.0 0.0 0.00 0.00 0.00 38 999.9
20260505021522 23 349 0.0 0.0 0.00 0.00 0.00 34 999.7
20260505020009 23 17 0.0 0.0 0.00 0.00 0.00 34 999.6
20260505014505 24 5 0.0 0.0 0.00 0.00 0.00 31 999.7
20260505013001 25 22 0.0 0.0 0.00 0.00 0.00 29 999.8
20260505011601 25 355 0.0 0.0 0.00 0.00 0.00 30 999.8
20260505010112 25 30 0.0 0.0 0.00 0.00 0.00 30 999.9
20260505004557 25 5 0.0 0.0 0.00 0.00 0.00 30 999.9
20260505003058 25 13 0.0 0.0 0.00 0.00 0.00 31 1000.0
20260505001603 25 27 0.0 0.0 0.00 0.00 0.00 32 1000.0
20260505000046 25 38 0.0 0.0 0.00 0.00 0.00 31 1000.1
20260504234538 25 22 0.0 0.0 0.00 0.00 0.00 31 1000.1
20260504233047 25 355 0.0 0.0 0.00 0.00 0.00 30 1000.3
20260504231543 25 11 0.0 0.0 0.00 0.00 0.00 29 1000.2
20260504230048 25 25 0.0 0.0 0.00 0.00 0.00 31 1000.3